Weather History for Hobart, OK

Change the Weather History Date:

Friday, February 8, 2013

  Actual Average Record
Temperature  
Mean Temperature 40 °F -  
Max Temperature 57 °F 50 °F 66 °F (1999)
Min Temperature 24 °F 28 °F 8 °F (2011)
Degree Days  
Heating Degree Days 24    
Moisture  
Dew Point 24 °F    
Average Humidity 57    
Maximum Humidity 88    
Minimum Humidity 19    
Precipitation  
Precipitation 0.00 in - - ()
Sea Level Pressure  
Sea Level Pressure 30.22 in    
Wind  
Wind Speed 8 mph (ENE)    
Max Wind Speed 10 mph    
Max Gust Speed 18 mph    
Visibility 10 miles    
Events      
Averages and records for this station are not official NWS values.
T = Trace of Precipitation, MM = Missing Value Source: NWS Daily Summary

Daily Weather History Graph

Daily Weather History Graph

Search for Another Location

Airport:

Trip Planner

Search our weather history database for the weather conditions in past years. The results will help you decide how hot, cold, wet, or windy it might be!

Date:

Astronomy

Feb. 08, 2013 Rise Set
Actual Time 7:28 AM CST 6:12 PM CST
Civil Twilight 7:02 AM CST 6:38 PM CST
Nautical Twilight 6:32 AM CST 7:08 PM CST
Astronomical Twilight 6:03 AM CST 7:38 PM CST
Moon 5:56 AM CST (2/8) 4:48 PM CST (2/8)
Length of Visible Light 11h 35m
Length of Day
10h 43m
Waning Crescent, 3% of the Moon is Illuminated
Feb 8
Waning Crescent
Feb 10
New
Feb 17
First Quarter
Feb 25
Full
Mar 4
Last Quarter

Hourly Weather History & Observations

Time (CST) Temp. Windchill Dew Point Humidity Pressure Visibility Wind Dir Wind Speed Gust Speed Precip Events Conditions
12:53 AM 34.0 °F 27.2 °F 27.0 °F 75% 30.24 in 10.0 mi North 8.1 mph - N/A   Clear
1:53 AM 34.0 °F 26.6 °F 27.0 °F 75% 30.25 in 10.0 mi NNE 9.2 mph - N/A   Clear
2:53 AM 33.1 °F 25.5 °F 26.1 °F 75% 30.25 in 10.0 mi NE 9.2 mph - N/A   Clear
3:53 AM 36.0 °F 32.1 °F 27.0 °F 70% 30.25 in 10.0 mi NNE 4.6 mph - N/A   Clear
4:53 AM 27.0 °F 19.5 °F 21.9 °F 81% 30.25 in 10.0 mi NNW 6.9 mph - N/A   Clear
5:53 AM 27.0 °F 18.7 °F 23.0 °F 85% 30.27 in 10.0 mi North 8.1 mph - N/A   Clear
6:53 AM 24.1 °F 16.0 °F 21.0 °F 88% 30.28 in 10.0 mi WNW 6.9 mph - N/A   Clear
7:53 AM 24.1 °F 17.0 °F 21.0 °F 88% 30.31 in 10.0 mi WNW 5.8 mph - N/A   Clear
8:53 AM 34.0 °F 29.8 °F 28.0 °F 79% 30.32 in 10.0 mi WNW 4.6 mph - N/A   Clear
9:53 AM 42.1 °F 40.2 °F 30.0 °F 62% 30.32 in 10.0 mi North 3.5 mph - N/A   Clear
10:53 AM 48.0 °F - 28.0 °F 46% 30.30 in 10.0 mi East 8.1 mph - N/A   Clear
11:53 AM 50.0 °F - 28.0 °F 43% 30.30 in 10.0 mi ESE 8.1 mph - N/A   Clear
12:53 PM 53.1 °F - 25.0 °F 34% 30.27 in 10.0 mi East 10.4 mph - N/A   Clear
1:53 PM 55.0 °F - 24.1 °F 30% 30.22 in 10.0 mi ESE 8.1 mph 18.4 mph N/A   Clear
2:53 PM 55.9 °F - 21.0 °F 26% 30.19 in 10.0 mi ESE 6.9 mph - N/A   Clear
3:53 PM 57.0 °F - 15.1 °F 19% 30.17 in 10.0 mi SSE 9.2 mph - N/A   Clear
4:53 PM 55.9 °F - 18.0 °F 23% 30.15 in 10.0 mi SE 10.4 mph - N/A   Clear
5:53 PM 52.0 °F - 19.0 °F 27% 30.14 in 10.0 mi ESE 10.4 mph - N/A   Clear
6:53 PM 46.0 °F 41.4 °F 19.0 °F 34% 30.16 in 10.0 mi SE 9.2 mph - N/A   Clear
7:53 PM 39.0 °F 33.4 °F 19.0 °F 45% 30.16 in 10.0 mi SE 8.1 mph - N/A   Clear
8:53 PM 37.9 °F 31.5 °F 21.9 °F 53% 30.14 in 10.0 mi ESE 9.2 mph - N/A   Clear
9:53 PM 36.0 °F - 24.1 °F 62% 30.14 in 10.0 mi North - - N/A   Clear
10:53 PM 35.1 °F 27.9 °F 26.1 °F 70% 30.12 in 10.0 mi ESE 9.2 mph - N/A   Clear
11:53 PM 36.0 °F 31.1 °F 28.0 °F 73% 30.12 in 10.0 mi East 5.8 mph - N/A   Clear